QPF
0.01 0.01 0.01 0.01 0.01 0.01 0.01 0.02 0.03 0.02 0.02 0.02 0.01 0.02 0.02 0.02 0.02 0.02 0.02 0.02 0.02 0.03 0.02 0.03 0.03 0.03 0.02 0.02 0.01 0.01 0.01 0.01 0.01 0.01 0.02 0.02 0.02 0.03 0.03 0.02 0.01 0.01 0.01
0.01 0.01 0.01 0.01 0.01 0.01 0.02 0.02 0.03 0.02 0.02 0.02 0.01 0.02 0.02 0.03 0.02 0.02 0.02 0.02 0.02 0.02 0.02 0.02 0.03 0.03 0.02 0.01 0.01 0.01 0.00 0.00 0.01 0.01 0.01 0.01 0.01 0.01 0.02 0.02 0.01 0.00 0.00
0.02 0.01 0.01 0.01 0.01 0.02 0.02 0.03 0.03 0.02 0.02 0.01 0.01 0.02 0.02 0.03 0.02 0.01 0.01 0.01 0.02 0.01 0.01 0.01 0.02 0.02 0.02 0.01 0.01 0.01 0.01 0.00 0.00 0.01 0.01 0.01 0.01 0.00 0.01 0.01 0.01 0.01 0.00
0.02 0.02 0.02 0.02 0.03 0.03 0.03 0.03 0.02 0.02 0.02 0.01 0.01 0.01 0.02 0.02 0.02 0.01 0.02 0.02 0.02 0.01 0.01 0.01 0.01 0.01 0.01 0.01 0.01 0.01 0.01 0.00 0.00 0.00 0.00 0.00 0.00 0.01 0.01 0.01 0.01 0.02 0.01
0.02 0.02 0.02 0.03 0.04 0.04 0.03 0.02 0.02 0.02 0.02 0.02 0.01 0.01 0.01 0.01 0.01 0.01 0.01 0.01 0.01 0.01 0.01 0.01 0.01 0.02 0.01 0.01 0.01 0.01 0.00 0.00 0.00 0.00 0.00 0.00 0.01 0.01 0.01 0.02 0.02 0.03 0.02
0.02 0.02 0.02 0.03 0.03 0.03 0.03 0.02 0.02 0.02 0.02 0.02 0.02 0.02 0.02 0.01 0.01 0.01 0.01 0.01 0.01 0.01 0.01 0.01 0.01 0.02 0.01 0.02 0.01 0.01 0.00 0.00 0.00 0.01 0.01 0.00 0.01 0.01 0.02 0.02 0.02 0.03 0.03
0.03 0.02 0.01 0.01 0.01 0.01 0.02 0.02 0.02 0.02 0.02 0.02 0.03 0.04 0.02 0.01 0.01 0.01 0.01 0.01 0.01 0.01 0.01 0.01 0.01 0.01 0.01 0.01 0.01 0.01 0.01 0.01 0.01 0.00 0.00 0.00 0.01 0.01 0.02 0.02 0.04 0.04 0.02
0.03 0.02 0.01 0.01 0.01 0.01 0.01 0.01 0.02 0.03 0.03 0.03 0.03 0.03 0.02 0.01 0.01 0.01 0.01 0.01 0.00 0.00 0.01 0.01 0.01 0.01 0.02 0.01 0.02 0.01 0.01 0.02 0.02 0.01 0.00 0.00 0.00 0.01 0.02 0.02 0.05 0.06 0.02
0.02 0.02 0.01 0.01 0.01 0.01 0.02 0.02 0.02 0.02 0.02 0.02 0.04 0.03 0.02 0.01 0.01 0.01 0.02 0.01 0.01 0.01 0.01 0.02 0.01 0.01 0.02 0.02 0.02 0.01 0.01 0.01 0.01 0.01 0.01 0.01 0.00 0.01 0.01 0.01 0.03 0.04 0.03
0.01 0.02 0.02 0.01 0.01 0.01 0.02 0.02 0.01 0.01 0.02 0.04 0.05 0.04 0.02 0.01 0.01 0.02 0.02 0.01 0.01 0.01 0.02 0.02 0.02 0.01 0.02 0.02 0.01 0.01 0.01 0.01 0.01 0.01 0.01 0.00 0.00 0.01 0.01 0.01 0.01 0.02 0.03
0.02 0.02 0.02 0.01 0.01 0.01 0.02 0.02 0.01 0.01 0.01 0.02 0.03 0.03 0.02 0.02 0.02 0.02 0.02 0.01 0.01 0.02 0.02 0.02 0.01 0.01 0.02 0.01 0.01 0.01 0.01 0.01 0.00 0.00 0.00 0.00 0.01 0.01 0.01 0.01 0.01 0.01 0.02
0.03 0.03 0.02 0.02 0.01 0.01 0.02 0.02 0.02 0.01 0.01 0.01 0.01 0.02 0.02 0.02 0.02 0.02 0.01 0.01 0.01 0.02 0.02 0.01 0.01 0.01 0.01 0.01 0.01 0.01 0.01 0.01 0.00 0.00 0.00 0.00 0.00 0.01 0.01 0.01 0.01 0.01 0.01
0.03 0.03 0.03 0.03 0.03 0.03 0.03 0.03 0.03 0.02 0.02 0.02 0.02 0.02 0.02 0.02 0.01 0.01 0.01 0.01 0.01 0.02 0.02 0.02 0.01 0.01 0.01 0.01 0.01 0.01 0.01 0.01 0.01 0.00 0.00 0.00 0.00 0.01 0.01 0.02 0.02 0.02 0.03
0.03 0.04 0.05 0.05 0.05 0.05 0.05 0.04 0.04 0.04 0.03 0.02 0.02 0.02 0.02 0.02 0.01 0.01 0.01 0.01 0.01 0.01 0.02 0.02 0.02 0.01 0.01 0.01 0.01 0.01 0.00 0.00 0.01 0.00 0.00 0.00 0.00 0.01 0.01 0.02 0.02 0.03 0.03
0.01 0.02 0.04 0.07 0.09 0.08 0.07 0.05 0.06 0.06 0.05 0.04 0.03 0.03 0.03 0.02 0.02 0.02 0.01 0.01 0.01 0.02 0.02 0.02 0.02 0.01 0.01 0.01 0.01 0.01 0.01 0.01 0.01 0.01 0.01 0.01 0.00 0.00 0.01 0.03 0.03 0.03 0.03
0.01 0.02 0.03 0.05 0.06 0.09 0.10 0.09 0.10 0.10 0.09 0.07 0.07 0.06 0.05 0.04 0.03 0.03 0.02 0.02 0.02 0.02 0.02 0.02 0.02 0.01 0.01 0.01 0.01 0.01 0.01 0.01 0.01 0.01 0.01 0.01 0.01 0.01 0.01 0.02 0.03 0.03 0.03
0.01 0.02 0.03 0.04 0.05 0.06 0.07 0.08 0.07 0.08 0.08 0.08 0.07 0.06 0.05 0.05 0.04 0.04 0.03 0.03 0.03 0.03 0.02 0.02 0.02 0.01 0.01 0.01 0.01 0.01 0.01 0.01 0.01 0.01 0.01 0.01 0.01 0.01 0.01 0.02 0.03 0.03 0.03
0.01 0.02 0.03 0.04 0.05 0.06 0.05 0.05 0.05 0.05 0.05 0.05 0.04 0.04 0.04 0.04 0.04 0.04 0.04 0.04 0.03 0.03 0.03 0.03 0.03 0.02 0.01 0.01 0.01 0.01 0.01 0.01 0.01 0.01 0.01 0.01 0.00 0.01 0.01 0.01 0.02 0.03 0.03
0.01 0.02 0.02 0.03 0.04 0.05 0.06 0.06 0.05 0.05 0.05 0.04 0.04 0.04 0.04 0.04 0.04 0.04 0.05 0.04 0.04 0.04 0.03 0.03 0.03 0.02 0.02 0.02 0.02 0.01 0.01 0.01 0.01 0.01 0.01 0.01 0.01 0.01 0.01 0.01 0.01 0.03 0.02
0.02 0.02 0.02 0.02 0.03 0.04 0.04 0.05 0.05 0.06 0.06 0.06 0.06 0.05 0.05 0.05 0.05 0.05 0.05 0.06 0.05 0.05 0.05 0.04 0.04 0.03 0.02 0.02 0.01 0.01 0.01 0.01 0.01 0.01 0.01 0.01 0.01 0.01 0.01 0.01 0.01 0.01 0.02
0.02 0.02 0.02 0.02 0.02 0.02 0.03 0.03 0.03 0.04 0.05 0.07 0.07 0.07 0.08 0.06 0.06 0.06 0.06 0.06 0.06 0.05 0.04 0.04 0.04 0.03 0.03 0.03 0.02 0.02 0.01 0.01 0.01 0.01 0.01 0.01 0.01 0.01 0.01 0.01 0.01 0.01 0.01
0.02 0.02 0.02 0.02 0.02 0.02 0.02 0.03 0.03 0.03 0.04 0.05 0.05 0.06 0.07 0.06 0.06 0.06 0.06 0.06 0.06 0.06 0.05 0.04 0.04 0.04 0.04 0.04 0.04 0.03 0.02 0.02 0.01 0.01 0.01 0.01 0.01 0.01 0.01 0.01 0.01 0.01 0.01
0.01 0.02 0.02 0.02 0.02 0.03 0.03 0.03 0.03 0.03 0.03 0.03 0.04 0.04 0.05 0.05 0.06 0.06 0.06 0.06 0.07 0.07 0.06 0.05 0.04 0.04 0.04 0.04 0.04 0.04 0.03 0.03 0.02 0.02 0.02 0.02 0.02 0.01 0.01 0.01 0.01 0.01 0.02
0.01 0.01 0.01 0.01 0.02 0.02 0.02 0.03 0.03 0.03 0.03 0.04 0.04 0.05 0.05 0.04 0.04 0.04 0.04 0.05 0.05 0.05 0.05 0.05 0.05 0.05 0.05 0.04 0.04 0.04 0.04 0.03 0.03 0.02 0.02 0.03 0.03 0.02 0.02 0.02 0.02 0.02 0.02
0.02 0.01 0.01 0.01 0.01 0.02 0.02 0.02 0.03 0.03 0.04 0.04 0.05 0.04 0.04 0.03 0.03 0.03 0.04 0.04 0.04 0.04 0.04 0.04 0.04 0.04 0.04 0.04 0.04 0.05 0.05 0.05 0.04 0.03 0.03 0.03 0.03 0.02 0.02 0.02 0.02 0.02 0.02
0.03 0.02 0.02 0.02 0.02 0.02 0.02 0.03 0.03 0.04 0.04 0.04 0.04 0.03 0.03 0.03 0.03 0.03 0.03 0.04 0.04 0.04 0.04 0.03 0.03 0.03 0.03 0.04 0.04 0.05 0.05 0.04 0.04 0.04 0.04 0.03 0.03 0.03 0.02 0.02 0.02 0.02 0.02
MSLP
1015.89 1016.01 1016.12 1016.24 1016.34 1016.41 1016.46 1016.47 1016.44 1016.37 1016.26 1016.12 1015.97 1015.83 1015.73 1015.68 1015.72 1015.84 1016.05 1016.32 1016.62 1016.90 1017.14 1017.29 1017.36 1017.36 1017.31 1017.26 1017.25 1017.33 1017.51 1017.77 1018.10 1018.43 1018.69 1018.84 1018.83 1018.64 1018.30 1017.83 1017.30 1016.76 1016.27
1015.92 1016.04 1016.18 1016.33 1016.47 1016.60 1016.71 1016.77 1016.78 1016.74 1016.64 1016.50 1016.33 1016.17 1016.06 1016.01 1016.05 1016.19 1016.42 1016.71 1017.03 1017.32 1017.56 1017.71 1017.76 1017.74 1017.67 1017.61 1017.61 1017.70 1017.90 1018.20 1018.57 1018.93 1019.23 1019.41 1019.42 1019.24 1018.89 1018.42 1017.87 1017.30 1016.77
1015.86 1015.99 1016.14 1016.32 1016.52 1016.72 1016.89 1017.03 1017.10 1017.10 1017.04 1016.92 1016.77 1016.61 1016.49 1016.44 1016.48 1016.63 1016.87 1017.17 1017.50 1017.81 1018.05 1018.19 1018.25 1018.22 1018.15 1018.09 1018.09 1018.19 1018.40 1018.71 1019.08 1019.45 1019.75 1019.93 1019.94 1019.76 1019.41 1018.93 1018.37 1017.78 1017.23
1015.71 1015.81 1015.97 1016.19 1016.44 1016.70 1016.96 1017.18 1017.34 1017.43 1017.43 1017.35 1017.23 1017.10 1016.99 1016.94 1016.98 1017.13 1017.36 1017.67 1018.00 1018.31 1018.55 1018.71 1018.77 1018.76 1018.70 1018.66 1018.67 1018.77 1018.97 1019.26 1019.61 1019.96 1020.24 1020.40 1020.39 1020.20 1019.85 1019.37 1018.82 1018.23 1017.67
1015.45 1015.52 1015.67 1015.90 1016.19 1016.53 1016.88 1017.20 1017.47 1017.65 1017.74 1017.75 1017.69 1017.59 1017.50 1017.47 1017.50 1017.64 1017.86 1018.15 1018.47 1018.77 1019.02 1019.19 1019.28 1019.29 1019.26 1019.24 1019.27 1019.37 1019.56 1019.83 1020.14 1020.45 1020.68 1020.81 1020.78 1020.58 1020.24 1019.77 1019.23 1018.67 1018.12
1015.11 1015.12 1015.24 1015.47 1015.80 1016.20 1016.64 1017.07 1017.45 1017.75 1017.96 1018.06 1018.08 1018.04 1017.99 1017.96 1018.00 1018.11 1018.31 1018.57 1018.86 1019.15 1019.40 1019.59 1019.70 1019.75 1019.77 1019.78 1019.83 1019.94 1020.11 1020.35 1020.62 1020.88 1021.07 1021.15 1021.10 1020.91 1020.58 1020.15 1019.65 1019.12 1018.59
1014.73 1014.66 1014.74 1014.95 1015.30 1015.75 1016.26 1016.80 1017.29 1017.72 1018.05 1018.26 1018.38 1018.41 1018.40 1018.40 1018.43 1018.52 1018.68 1018.90 1019.16 1019.43 1019.67 1019.87 1020.01 1020.11 1020.17 1020.22 1020.30 1020.42 1020.59 1020.81 1021.03 1021.24 1021.39 1021.44 1021.38 1021.19 1020.89 1020.50 1020.06 1019.59 1019.10
1014.38 1014.23 1014.24 1014.42 1014.76 1015.24 1015.81 1016.42 1017.02 1017.57 1018.01 1018.34 1018.55 1018.67 1018.72 1018.74 1018.77 1018.84 1018.97 1019.15 1019.38 1019.62 1019.85 1020.05 1020.22 1020.35 1020.45 1020.55 1020.66 1020.80 1020.97 1021.17 1021.37 1021.54 1021.65 1021.68 1021.61 1021.44 1021.18 1020.85 1020.47 1020.05 1019.62
1014.12 1013.88 1013.82 1013.94 1014.26 1014.73 1015.33 1016.00 1016.67 1017.31 1017.86 1018.30 1018.60 1018.80 1018.91 1018.97 1019.02 1019.09 1019.19 1019.34 1019.54 1019.75 1019.97 1020.18 1020.36 1020.53 1020.67 1020.80 1020.95 1021.10 1021.28 1021.46 1021.64 1021.78 1021.87 1021.89 1021.82 1021.67 1021.45 1021.17 1020.84 1020.49 1020.10
1014.00 1013.68 1013.54 1013.59 1013.85 1014.30 1014.89 1015.57 1016.29 1016.98 1017.61 1018.13 1018.52 1018.80 1018.98 1019.10 1019.18 1019.26 1019.37 1019.51 1019.68 1019.88 1020.10 1020.31 1020.51 1020.69 1020.87 1021.03 1021.20 1021.37 1021.55 1021.72 1021.88 1022.01 1022.08 1022.09 1022.03 1021.89 1021.70 1021.45 1021.17 1020.85 1020.51
1014.04 1013.64 1013.42 1013.39 1013.58 1013.96 1014.51 1015.16 1015.88 1016.60 1017.26 1017.84 1018.31 1018.66 1018.92 1019.10 1019.24 1019.37 1019.51 1019.66 1019.85 1020.06 1020.28 1020.50 1020.71 1020.92 1021.11 1021.29 1021.47 1021.65 1021.83 1021.99 1022.14 1022.25 1022.30 1022.30 1022.23 1022.10 1021.92 1021.69 1021.43 1021.13 1020.80
1014.19 1013.74 1013.44 1013.33 1013.43 1013.73 1014.20 1014.79 1015.46 1016.15 1016.82 1017.43 1017.95 1018.37 1018.70 1018.97 1019.19 1019.39 1019.59 1019.81 1020.04 1020.28 1020.52 1020.77 1021.00 1021.22 1021.43 1021.62 1021.80 1021.98 1022.15 1022.30 1022.42 1022.51 1022.55 1022.53 1022.45 1022.31 1022.11 1021.88 1021.61 1021.31 1020.97
1014.42 1013.92 1013.56 1013.37 1013.37 1013.56 1013.93 1014.42 1015.01 1015.65 1016.29 1016.89 1017.43 1017.91 1018.32 1018.68 1019.00 1019.31 1019.60 1019.90 1020.21 1020.52 1020.81 1021.10 1021.36 1021.60 1021.81 1022.01 1022.18 1022.35 1022.50 1022.64 1022.74 1022.81 1022.82 1022.78 1022.67 1022.51 1022.29 1022.03 1021.74 1021.41 1021.04
1014.63 1014.10 1013.69 1013.42 1013.33 1013.41 1013.66 1014.04 1014.52 1015.07 1015.65 1016.22 1016.77 1017.28 1017.76 1018.21 1018.65 1019.07 1019.49 1019.91 1020.32 1020.71 1021.08 1021.42 1021.72 1021.98 1022.21 1022.41 1022.58 1022.73 1022.87 1022.98 1023.06 1023.11 1023.10 1023.03 1022.90 1022.71 1022.46 1022.17 1021.83 1021.46 1021.06
1014.74 1014.20 1013.75 1013.43 1013.25 1013.23 1013.35 1013.61 1013.97 1014.41 1014.91 1015.43 1015.96 1016.50 1017.03 1017.57 1018.11 1018.66 1019.21 1019.76 1020.29 1020.79 1021.24 1021.65 1022.00 1022.30 1022.55 1022.74 1022.91 1023.06 1023.18 1023.27 1023.34 1023.37 1023.35 1023.27 1023.12 1022.90 1022.63 1022.30 1021.92 1021.52 1021.08
1014.70 1014.16 1013.69 1013.32 1013.07 1012.96 1012.98 1013.12 1013.36 1013.69 1014.09 1014.55 1015.05 1015.59 1016.16 1016.77 1017.41 1018.07 1018.74 1019.41 1020.06 1020.67 1021.22 1021.71 1022.11 1022.45 1022.72 1022.93 1023.11 1023.25 1023.37 1023.46 1023.52 1023.55 1023.53 1023.45 1023.30 1023.08 1022.79 1022.44 1022.04 1021.60 1021.14
1014.45 1013.92 1013.45 1013.05 1012.76 1012.58 1012.52 1012.56 1012.70 1012.93 1013.25 1013.63 1014.09 1014.62 1015.21 1015.86 1016.57 1017.32 1018.10 1018.87 1019.63 1020.33 1020.97 1021.53 1022.00 1022.38 1022.68 1022.92 1023.11 1023.26 1023.39 1023.49 1023.57 1023.61 1023.61 1023.55 1023.42 1023.21 1022.93 1022.59 1022.18 1021.74 1021.26
1014.01 1013.49 1013.03 1012.63 1012.31 1012.10 1011.97 1011.95 1012.01 1012.17 1012.41 1012.73 1013.15 1013.65 1014.24 1014.91 1015.66 1016.47 1017.31 1018.17 1019.00 1019.78 1020.50 1021.12 1021.64 1022.07 1022.41 1022.67 1022.89 1023.07 1023.22 1023.35 1023.46 1023.54 1023.57 1023.55 1023.46 1023.29 1023.04 1022.72 1022.34 1021.91 1021.44
1013.38 1012.88 1012.43 1012.04 1011.73 1011.50 1011.35 1011.29 1011.31 1011.42 1011.60 1011.88 1012.26 1012.73 1013.31 1013.99 1014.75 1015.58 1016.46 1017.36 1018.24 1019.07 1019.83 1020.50 1021.07 1021.54 1021.92 1022.22 1022.47 1022.68 1022.87 1023.04 1023.20 1023.32 1023.41 1023.44 1023.41 1023.29 1023.10 1022.83 1022.48 1022.08 1021.64
1012.59 1012.11 1011.68 1011.31 1011.01 1010.80 1010.65 1010.59 1010.59 1010.68 1010.85 1011.10 1011.45 1011.91 1012.47 1013.13 1013.88 1014.71 1015.60 1016.51 1017.40 1018.26 1019.05 1019.74 1020.35 1020.85 1021.27 1021.62 1021.91 1022.16 1022.39 1022.61 1022.81 1022.99 1023.13 1023.23 1023.26 1023.21 1023.08 1022.87 1022.58 1022.23 1021.83
1011.66 1011.19 1010.78 1010.43 1010.16 1009.97 1009.85 1009.81 1009.84 1009.93 1010.11 1010.36 1010.71 1011.16 1011.70 1012.35 1013.09 1013.90 1014.77 1015.67 1016.56 1017.41 1018.21 1018.93 1019.55 1020.09 1020.54 1020.92 1021.26 1021.55 1021.83 1022.09 1022.34 1022.57 1022.77 1022.92 1023.02 1023.03 1022.97 1022.83 1022.61 1022.31 1021.97
1010.63 1010.15 1009.74 1009.41 1009.17 1009.01 1008.93 1008.93 1008.99 1009.13 1009.34 1009.62 1009.99 1010.45 1011.00 1011.64 1012.36 1013.15 1014.00 1014.87 1015.74 1016.59 1017.38 1018.10 1018.74 1019.30 1019.79 1020.21 1020.58 1020.92 1021.24 1021.54 1021.83 1022.10 1022.35 1022.55 1022.70 1022.78 1022.78 1022.70 1022.54 1022.31 1022.03
1009.48 1008.98 1008.57 1008.24 1008.02 1007.89 1007.85 1007.89 1008.01 1008.21 1008.47 1008.81 1009.22 1009.71 1010.28 1010.93 1011.65 1012.43 1013.26 1014.11 1014.96 1015.79 1016.58 1017.31 1017.96 1018.55 1019.06 1019.52 1019.93 1020.30 1020.66 1020.99 1021.31 1021.62 1021.90 1022.14 1022.32 1022.45 1022.50 1022.48 1022.39 1022.23 1022.00
1008.24 1007.71 1007.27 1006.93 1006.71 1006.60 1006.59 1006.69 1006.87 1007.13 1007.46 1007.87 1008.35 1008.89 1009.50 1010.18 1010.91 1011.70 1012.52 1013.36 1014.20 1015.02 1015.81 1016.54 1017.22 1017.83 1018.37 1018.86 1019.31 1019.72 1020.10 1020.47 1020.82 1021.14 1021.44 1021.70 1021.92 1022.08 1022.17 1022.21 1022.17 1022.07 1021.91
1006.92 1006.34 1005.87 1005.51 1005.27 1005.17 1005.19 1005.32 1005.56 1005.88 1006.29 1006.78 1007.33 1007.94 1008.61 1009.33 1010.09 1010.90 1011.73 1012.58 1013.42 1014.25 1015.04 1015.79 1016.49 1017.13 1017.72 1018.25 1018.73 1019.17 1019.59 1019.97 1020.34 1020.68 1020.99 1021.26 1021.50 1021.68 1021.81 1021.89 1021.90 1021.86 1021.77
1005.54 1004.92 1004.40 1004.01 1003.76 1003.65 1003.68 1003.84 1004.13 1004.51 1005.00 1005.55 1006.18 1006.87 1007.60 1008.37 1009.19 1010.02 1010.88 1011.75 1012.60 1013.45 1014.26 1015.04 1015.77 1016.44 1017.07 1017.64 1018.16 1018.64 1019.08 1019.49 1019.87 1020.22 1020.54 1020.83 1021.08 1021.28 1021.44 1021.55 1021.62 1021.63 1021.61
Thickness
5684 5682 5679 5677 5675 5673 5671 5669 5667 5666 5664 5662 5661 5659 5658 5656 5655 5653 5652 5650 5649 5648 5647 5646 5644 5643 5640 5639 5637 5636 5634 5632 5629 5628 5629 5631 5631 5632 5632 5633 5633 5634 5634
5680 5677 5675 5674 5671 5669 5667 5665 5664 5662 5661 5659 5657 5655 5654 5653 5651 5649 5647 5646 5644 5643 5642 5641 5639 5638 5636 5634 5632 5631 5629 5628 5626 5624 5624 5625 5626 5626 5626 5626 5627 5627 5628
5674 5672 5670 5668 5666 5664 5663 5661 5660 5658 5656 5655 5653 5651 5649 5648 5647 5645 5644 5642 5640 5639 5637 5636 5635 5633 5631 5629 5627 5626 5625 5624 5622 5620 5619 5619 5619 5620 5620 5620 5621 5621 5622
5669 5666 5664 5663 5662 5660 5658 5657 5655 5654 5652 5650 5648 5647 5645 5644 5643 5641 5640 5638 5636 5635 5634 5632 5631 5629 5628 5626 5624 5622 5620 5618 5616 5615 5613 5613 5613 5613 5613 5613 5613 5614 5615
5664 5661 5660 5659 5657 5655 5653 5652 5650 5649 5648 5646 5644 5642 5641 5639 5639 5637 5635 5634 5631 5630 5629 5628 5627 5626 5625 5623 5622 5619 5616 5613 5611 5610 5608 5607 5607 5607 5607 5607 5607 5608 5609
5658 5656 5655 5654 5652 5650 5648 5647 5644 5643 5641 5640 5638 5637 5635 5636 5636 5634 5632 5630 5627 5625 5624 5623 5622 5622 5621 5619 5619 5617 5615 5611 5608 5606 5604 5604 5604 5604 5603 5602 5601 5601 5602
5652 5650 5649 5648 5646 5644 5643 5641 5638 5637 5635 5633 5632 5631 5631 5631 5631 5630 5629 5625 5623 5621 5619 5618 5618 5618 5616 5614 5613 5612 5610 5609 5609 5606 5603 5603 5603 5603 5600 5598 5597 5597 5598
5646 5644 5643 5642 5640 5638 5636 5634 5633 5631 5630 5628 5627 5626 5626 5626 5626 5625 5624 5620 5618 5616 5615 5614 5612 5611 5611 5609 5608 5606 5604 5604 5603 5603 5602 5602 5602 5601 5599 5597 5595 5592 5592
5639 5638 5637 5635 5634 5632 5630 5629 5627 5625 5624 5623 5622 5621 5621 5621 5621 5620 5618 5614 5612 5611 5610 5609 5608 5607 5608 5606 5603 5600 5599 5598 5599 5598 5598 5597 5597 5596 5594 5591 5588 5586 5586
5633 5633 5631 5629 5627 5626 5625 5624 5622 5620 5619 5618 5617 5617 5616 5616 5616 5616 5614 5610 5607 5606 5605 5604 5604 5604 5603 5601 5598 5596 5594 5594 5593 5592 5591 5591 5590 5589 5588 5587 5585 5582 5580
5627 5626 5625 5623 5622 5621 5620 5618 5616 5615 5613 5612 5611 5611 5611 5611 5611 5610 5609 5605 5603 5601 5600 5599 5600 5600 5599 5597 5595 5592 5592 5590 5587 5585 5584 5583 5583 5582 5581 5580 5579 5578 5577
5620 5618 5617 5616 5616 5615 5613 5612 5610 5608 5606 5605 5604 5604 5605 5605 5605 5605 5604 5602 5600 5597 5596 5596 5595 5595 5593 5592 5590 5588 5586 5583 5580 5578 5576 5576 5575 5575 5574 5573 5572 5572 5572
5612 5610 5609 5608 5607 5607 5605 5604 5602 5601 5599 5599 5598 5598 5598 5599 5599 5599 5598 5597 5595 5593 5592 5592 5591 5589 5587 5585 5584 5581 5578 5575 5572 5571 5570 5570 5569 5569 5567 5566 5565 5564 5564
5602 5601 5600 5599 5599 5598 5598 5597 5595 5593 5592 5592 5592 5592 5592 5591 5591 5591 5591 5589 5588 5587 5586 5585 5584 5581 5579 5577 5575 5573 5570 5568 5566 5565 5564 5563 5562 5560 5559 5558 5557 5556 5555
5592 5592 5592 5591 5590 5590 5589 5588 5588 5589 5588 5587 5586 5586 5584 5585 5587 5586 5584 5583 5582 5580 5578 5576 5573 5571 5569 5567 5566 5564 5563 5561 5560 5558 5557 5556 5554 5553 5552 5551 5550 5548 5548
5583 5583 5582 5582 5582 5581 5581 5580 5581 5581 5582 5581 5581 5580 5580 5580 5581 5580 5579 5578 5576 5574 5570 5567 5566 5564 5563 5561 5559 5557 5556 5555 5554 5552 5551 5550 5548 5547 5546 5544 5543 5542 5542
5573 5573 5573 5572 5572 5572 5571 5571 5572 5573 5573 5573 5573 5572 5572 5573 5573 5573 5572 5571 5569 5566 5563 5561 5560 5559 5557 5555 5554 5552 5551 5550 5548 5546 5545 5544 5542 5541 5540 5538 5537 5536 5536
5565 5565 5564 5563 5562 5562 5562 5562 5562 5563 5563 5563 5564 5564 5564 5565 5565 5565 5564 5562 5560 5558 5557 5556 5555 5553 5551 5550 5548 5547 5545 5544 5542 5540 5539 5537 5536 5535 5534 5533 5532 5531 5531
5557 5556 5555 5554 5554 5554 5553 5552 5553 5554 5554 5554 5555 5555 5555 5555 5555 5555 5555 5553 5552 5551 5550 5549 5549 5547 5546 5544 5543 5541 5540 5538 5536 5535 5533 5532 5531 5529 5529 5528 5527 5527 5525
5547 5549 5548 5546 5545 5545 5544 5544 5544 5544 5545 5545 5545 5546 5546 5545 5544 5544 5544 5544 5544 5543 5542 5542 5541 5540 5539 5538 5536 5535 5533 5532 5531 5529 5528 5527 5525 5524 5524 5524 5523 5522 5521
5538 5539 5540 5538 5536 5536 5535 5535 5535 5535 5535 5535 5536 5537 5537 5536 5536 5535 5535 5535 5534 5534 5534 5533 5533 5532 5531 5530 5529 5529 5527 5527 5525 5524 5523 5522 5520 5519 5519 5519 5518 5518 5517
5529 5529 5529 5528 5527 5526 5526 5526 5526 5526 5526 5526 5527 5527 5527 5526 5527 5526 5526 5526 5526 5526 5526 5525 5524 5524 5523 5522 5522 5521 5521 5521 5520 5519 5518 5517 5516 5515 5514 5513 5513 5512 5512
5519 5518 5518 5518 5517 5517 5517 5517 5516 5516 5516 5516 5516 5516 5517 5517 5517 5517 5517 5518 5518 5517 5517 5516 5516 5515 5515 5515 5514 5514 5513 5513 5513 5513 5512 5512 5511 5510 5510 5509 5508 5507 5507
5508 5508 5508 5507 5507 5507 5507 5507 5506 5506 5506 5506 5506 5506 5506 5507 5508 5508 5508 5508 5508 5508 5507 5507 5507 5506 5506 5506 5506 5506 5506 5505 5505 5505 5505 5505 5505 5505 5504 5504 5504 5503 5503
5498 5498 5498 5497 5497 5497 5497 5497 5497 5497 5496 5496 5496 5496 5496 5497 5498 5498 5499 5499 5499 5499 5499 5498 5497 5497 5497 5496 5497 5497 5497 5496 5496 5496 5497 5497 5498 5498 5497 5497 5497 5497 5497
5489 5488 5488 5487 5487 5488 5488 5488 5487 5487 5487 5487 5486 5486 5487 5487 5487 5488 5489 5489 5489 5489 5488 5488 5488 5488 5487 5487 5488 5488 5487 5487 5487 5488 5487 5488 5489 5489 5490 5490 5490 5489 5489